Time,TemperatureF,DewpointF,PressureIn,WindDirection,WindDirectionDegrees,WindSpeedMPH,WindSpeedGustMPH,Humidity,HourlyPrecipIn,Conditions,Clouds,dailyrainin,SoftwareType,DateUTC
2013-03-09 00:03:00,42.2,27.0,30.27,North,360,0.0,0.0,55,0.00,,FEW070,0.00,VWS V14.01,2013-03-09 05:03:00,
2013-03-09 00:08:00,42.0,26.9,30.27,North,360,0.0,0.0,55,0.00,,FEW070,0.00,VWS V14.01,2013-03-09 05:08:00,
2013-03-09 00:13:00,41.9,26.8,30.28,North,360,0.0,0.0,55,0.00,,FEW070,0.00,VWS V14.01,2013-03-09 05:13:00,
2013-03-09 00:18:00,41.8,27.1,30.28,North,360,0.0,0.0,56,0.00,,FEW070,0.00,VWS V14.01,2013-03-09 05:18:00,
2013-03-09 00:25:00,41.7,27.0,30.28,North,360,0.0,0.0,56,0.00,,FEW070,0.00,VWS V14.01,2013-03-09 05:25:00,
2013-03-09 00:28:00,41.6,27.0,30.28,North,360,0.0,0.0,56,0.00,,FEW070,0.00,VWS V14.01,2013-03-09 05:28:00,
2013-03-09 00:38:00,41.1,27.4,30.29,North,360,0.0,0.0,58,0.00,,FEW070,0.00,VWS V14.01,2013-03-09 05:38:00,
2013-03-09 00:44:00,41.0,26.9,30.29,North,360,0.0,0.0,57,0.00,,FEW070,0.00,VWS V14.01,2013-03-09 05:44:00,
2013-03-09 00:53:00,40.9,27.2,30.30,North,360,0.0,0.0,58,0.00,,FEW070,0.00,VWS V14.01,2013-03-09 05:53:00,
2013-03-09 01:03:00,40.8,26.7,30.29,North,360,0.0,0.0,57,0.00,,CLR,0.00,VWS V14.01,2013-03-09 06:03:00,
2013-03-09 01:13:00,40.7,26.6,30.30,North,360,0.0,0.0,57,0.00,,CLR,0.00,VWS V14.01,2013-03-09 06:13:00,
2013-03-09 01:18:00,40.7,26.6,30.31,North,360,0.0,0.0,57,0.00,,CLR,0.00,VWS V14.01,2013-03-09 06:18:00,
2013-03-09 01:23:00,40.6,26.5,30.31,North,360,0.0,0.0,57,0.00,,CLR,0.00,VWS V14.01,2013-03-09 06:23:00,
2013-03-09 01:28:00,40.5,26.4,30.31,North,360,0.0,0.0,57,0.00,,CLR,0.00,VWS V14.01,2013-03-09 06:28:00,
2013-03-09 01:38:00,40.3,26.7,30.30,North,360,0.0,0.0,58,0.00,,CLR,0.00,VWS V14.01,2013-03-09 06:38:00,
2013-03-09 01:43:00,40.3,26.2,30.30,North,360,0.0,0.0,57,0.00,,CLR,0.00,VWS V14.01,2013-03-09 06:43:00,
2013-03-09 01:48:00,40.2,26.1,30.30,North,360,0.0,0.0,57,0.00,,CLR,0.00,VWS V14.01,2013-03-09 06:48:00,
2013-03-09 01:53:00,40.3,25.8,30.30,North,360,0.0,0.0,56,0.00,,CLR,0.00,VWS V14.01,2013-03-09 06:53:00,
2013-03-09 01:58:00,40.4,25.8,30.30,North,360,0.0,0.0,56,0.00,,CLR,0.00,VWS V14.01,2013-03-09 06:58:00,
2013-03-09 02:07:00,40.5,25.0,30.30,North,360,0.0,0.0,54,0.00,,CLR,0.00,VWS V14.01,2013-03-09 07:07:00,
2013-03-09 02:13:00,40.4,24.9,30.30,North,360,0.0,0.0,54,0.00,,CLR,0.00,VWS V14.01,2013-03-09 07:13:00,
2013-03-09 02:18:00,40.1,25.6,30.30,North,360,0.0,0.0,56,0.00,,CLR,0.00,VWS V14.01,2013-03-09 07:18:00,
2013-03-09 02:23:00,40.1,25.1,30.30,North,360,0.0,0.0,55,0.00,,CLR,0.00,VWS V14.01,2013-03-09 07:23:00,
2013-03-09 02:28:00,39.8,25.3,30.30,North,360,0.0,0.0,56,0.00,,CLR,0.00,VWS V14.01,2013-03-09 07:28:00,
2013-03-09 02:33:00,39.6,25.5,30.30,North,360,0.0,0.0,57,0.00,,CLR,0.00,VWS V14.01,2013-03-09 07:33:00,
2013-03-09 02:38:00,39.4,25.4,30.30,North,360,0.0,0.0,57,0.00,,CLR,0.00,VWS V14.01,2013-03-09 07:38:00,
2013-03-09 02:48:00,39.2,25.6,30.30,North,360,0.0,0.0,58,0.00,,CLR,0.00,VWS V14.01,2013-03-09 07:48:00,
2013-03-09 02:58:00,39.1,25.5,30.30,North,360,0.0,0.0,58,0.00,,CLR,0.00,VWS V14.01,2013-03-09 07:58:00,
2013-03-09 03:07:00,39.0,25.4,30.30,North,360,0.0,0.0,58,0.00,,CLR,0.00,VWS V14.01,2013-03-09 08:07:00,
2013-03-09 03:13:00,38.8,25.2,30.30,North,360,0.0,0.0,58,0.00,,CLR,0.00,VWS V14.01,2013-03-09 08:13:00,
2013-03-09 03:18:00,38.7,25.2,30.30,North,360,0.0,0.0,58,0.00,,CLR,0.00,VWS V14.01,2013-03-09 08:18:00,
2013-03-09 03:28:00,38.5,25.4,30.30,North,360,0.0,0.0,59,0.00,,CLR,0.00,VWS V14.01,2013-03-09 08:28:00,
2013-03-09 03:38:00,38.2,25.6,30.30,North,360,0.0,0.0,60,0.00,,CLR,0.00,VWS V14.01,2013-03-09 08:38:00,
2013-03-09 03:43:00,38.1,25.5,30.30,North,360,0.0,0.0,60,0.00,,CLR,0.00,VWS V14.01,2013-03-09 08:43:00,
2013-03-09 03:53:00,37.9,25.7,30.30,North,360,0.0,0.0,61,0.00,,CLR,0.00,VWS V14.01,2013-03-09 08:53:00,
2013-03-09 03:58:00,37.7,25.5,30.30,North,360,0.0,0.0,61,0.00,,CLR,0.00,VWS V14.01,2013-03-09 08:58:00,
2013-03-09 04:07:00,37.6,25.9,30.30,North,360,0.0,0.0,62,0.00,,CLR,0.00,VWS V14.01,2013-03-09 09:07:00,
2013-03-09 04:13:00,37.5,25.3,30.30,North,360,0.0,0.0,61,0.00,,CLR,0.00,VWS V14.01,2013-03-09 09:13:00,
2013-03-09 04:18:00,37.4,25.2,30.30,North,360,0.0,0.0,61,0.00,,CLR,0.00,VWS V14.01,2013-03-09 09:18:00,
2013-03-09 04:25:00,37.4,25.2,30.30,North,360,0.0,0.0,61,0.00,,CLR,0.00,VWS V14.01,2013-03-09 09:25:00,
2013-03-09 04:33:00,37.3,25.1,30.31,North,360,0.0,0.0,61,0.00,,CLR,0.00,VWS V14.01,2013-03-09 09:33:00,
2013-03-09 04:38:00,37.1,25.0,30.31,North,360,0.0,0.0,61,0.00,,CLR,0.00,VWS V14.01,2013-03-09 09:38:00,
2013-03-09 04:48:00,37.0,24.9,30.31,North,360,0.0,0.0,61,0.00,,CLR,0.00,VWS V14.01,2013-03-09 09:48:00,
2013-03-09 04:53:00,36.9,25.2,30.31,North,360,0.0,0.0,62,0.00,,CLR,0.00,VWS V14.01,2013-03-09 09:53:00,
2013-03-09 04:58:00,36.8,25.1,30.32,North,360,0.0,0.0,62,0.00,,CLR,0.00,VWS V14.01,2013-03-09 09:58:00,
2013-03-09 05:08:00,36.6,24.9,30.32,North,360,0.0,0.0,62,0.00,,CLR,0.00,VWS V14.01,2013-03-09 10:08:00,
2013-03-09 05:13:00,36.5,25.6,30.32,North,360,0.0,0.0,64,0.00,,CLR,0.00,VWS V14.01,2013-03-09 10:13:00,
2013-03-09 05:18:00,36.3,25.0,30.32,North,360,0.0,0.0,63,0.00,,CLR,0.00,VWS V14.01,2013-03-09 10:18:00,
2013-03-09 05:28:00,36.0,25.5,30.32,North,360,0.0,0.0,65,0.00,,CLR,0.00,VWS V14.01,2013-03-09 10:28:00,
2013-03-09 05:33:00,35.9,25.5,30.32,North,360,0.0,0.0,65,0.00,,CLR,0.00,VWS V14.01,2013-03-09 10:33:00,
2013-03-09 05:43:00,36.0,25.1,30.32,North,360,0.0,0.0,64,0.00,,CLR,0.00,VWS V14.01,2013-03-09 10:43:00,
2013-03-09 05:48:00,36.0,25.1,30.32,North,360,0.0,0.0,64,0.00,,CLR,0.00,VWS V14.01,2013-03-09 10:48:00,
2013-03-09 05:53:00,36.1,25.2,30.32,North,360,0.0,0.0,64,0.00,,CLR,0.00,VWS V14.01,2013-03-09 10:53:00,
2013-03-09 05:58:00,36.1,25.2,30.33,North,360,0.0,0.0,64,0.00,,CLR,0.00,VWS V14.01,2013-03-09 10:58:00,
2013-03-09 06:03:00,36.1,25.2,30.33,North,360,0.0,0.0,64,0.00,,CLR,0.00,VWS V14.01,2013-03-09 11:03:00,
2013-03-09 06:08:00,35.9,25.5,30.33,North,360,0.0,0.0,65,0.00,,CLR,0.00,VWS V14.01,2013-03-09 11:08:00,
2013-03-09 06:13:00,35.8,25.4,30.33,North,360,0.0,0.0,65,0.00,,CLR,0.00,VWS V14.01,2013-03-09 11:13:00,
2013-03-09 06:18:00,35.8,25.0,30.33,North,360,0.0,0.0,64,0.00,,CLR,0.00,VWS V14.01,2013-03-09 11:18:00,
2013-03-09 06:23:00,35.9,25.1,30.33,North,360,0.0,0.0,64,0.00,,CLR,0.00,VWS V14.01,2013-03-09 11:23:00,
2013-03-09 06:33:00,35.8,24.6,30.34,North,360,0.0,0.0,63,0.00,,CLR,0.00,VWS V14.01,2013-03-09 11:33:00,
2013-03-09 06:43:00,35.7,24.9,30.33,North,360,0.0,0.0,64,0.00,,CLR,0.00,VWS V14.01,2013-03-09 11:43:00,
2013-03-09 06:48:00,35.6,24.8,30.34,North,360,0.0,0.0,64,0.00,,CLR,0.00,VWS V14.01,2013-03-09 11:48:00,
2013-03-09 06:53:00,35.5,25.1,30.34,North,360,0.0,0.0,65,0.00,,CLR,0.00,VWS V14.01,2013-03-09 11:53:00,
2013-03-09 06:58:00,35.5,24.7,30.34,North,360,0.0,0.0,64,0.00,,CLR,0.00,VWS V14.01,2013-03-09 11:58:00,
2013-03-09 07:07:00,35.6,24.8,30.34,North,360,0.0,0.0,64,0.00,,CLR,0.00,VWS V14.01,2013-03-09 12:07:00,
2013-03-09 07:13:00,35.9,25.1,30.35,North,360,0.0,0.0,64,0.00,,CLR,0.00,VWS V14.01,2013-03-09 12:13:00,
2013-03-09 07:18:00,36.0,24.3,30.35,North,360,0.0,0.0,62,0.00,,CLR,0.00,VWS V14.01,2013-03-09 12:18:00,
2013-03-09 07:23:00,36.2,24.9,30.35,North,360,0.0,0.0,63,0.00,,CLR,0.00,VWS V14.01,2013-03-09 12:23:00,
2013-03-09 07:28:00,36.4,24.3,30.35,North,360,0.0,0.0,61,0.00,,CLR,0.00,VWS V14.01,2013-03-09 12:28:00,
2013-03-09 07:33:00,36.7,25.0,30.35,North,360,0.0,0.0,62,0.00,,CLR,0.00,VWS V14.01,2013-03-09 12:33:00,
2013-03-09 07:43:00,37.4,24.4,30.35,North,360,0.0,0.0,59,0.00,,CLR,0.00,VWS V14.01,2013-03-09 12:43:00,
2013-03-09 07:48:00,37.7,24.2,30.35,North,360,0.0,0.0,58,0.00,,CLR,0.00,VWS V14.01,2013-03-09 12:48:00,
2013-03-09 07:58:00,38.2,24.2,30.35,North,360,0.0,0.0,57,0.00,,CLR,0.00,VWS V14.01,2013-03-09 12:58:00,
2013-03-09 08:03:00,38.5,24.1,30.35,North,360,0.0,0.0,56,0.00,,CLR,0.00,VWS V14.01,2013-03-09 13:03:00,
2013-03-09 08:08:00,38.9,24.0,30.35,North,360,0.0,0.0,55,0.00,,CLR,0.00,VWS V14.01,2013-03-09 13:08:00,
2013-03-09 08:18:00,39.4,24.4,30.36,North,360,0.0,0.0,55,0.00,,CLR,0.00,VWS V14.01,2013-03-09 13:18:00,
2013-03-09 08:23:00,39.8,24.3,30.36,North,360,0.0,0.0,54,0.00,,CLR,0.00,VWS V14.01,2013-03-09 13:23:00,
2013-03-09 08:28:00,39.9,23.4,30.36,North,360,0.0,0.0,51,0.00,,CLR,0.00,VWS V14.01,2013-03-09 13:28:00,
2013-03-09 08:33:00,40.2,23.7,30.36,North,360,0.0,0.0,51,0.00,,CLR,0.00,VWS V14.01,2013-03-09 13:33:00,
2013-03-09 08:43:00,40.9,23.9,30.36,North,360,0.0,0.0,50,0.00,,CLR,0.00,VWS V14.01,2013-03-09 13:43:00,
2013-03-09 08:48:00,41.1,24.0,30.36,North,360,0.0,0.0,50,0.00,,CLR,0.00,VWS V14.01,2013-03-09 13:48:00,
2013-03-09 08:53:00,40.9,23.9,30.36,North,360,0.0,0.0,50,0.00,,CLR,0.00,VWS V14.01,2013-03-09 13:53:00,
2013-03-09 08:58:00,41.4,23.8,30.36,North,360,0.0,0.0,49,0.00,,CLR,0.00,VWS V14.01,2013-03-09 13:58:00,
2013-03-09 09:08:00,42.2,24.0,30.37,North,360,0.0,0.0,48,0.00,,CLR,0.00,VWS V14.01,2013-03-09 14:08:00,
2013-03-09 09:13:00,42.2,23.5,30.37,North,360,0.0,0.0,47,0.00,,CLR,0.00,VWS V14.01,2013-03-09 14:13:00,
2013-03-09 09:18:00,42.6,24.4,30.37,North,360,0.0,0.0,48,0.00,,CLR,0.00,VWS V14.01,2013-03-09 14:18:00,
2013-03-09 09:23:00,43.2,24.4,30.37,North,360,0.0,0.0,47,0.00,,CLR,0.00,VWS V14.01,2013-03-09 14:23:00,
2013-03-09 09:28:00,43.6,23.6,30.38,North,360,0.0,0.0,45,0.00,,CLR,0.00,VWS V14.01,2013-03-09 14:28:00,
2013-03-09 09:33:00,43.5,23.0,30.37,North,360,0.0,0.0,44,0.00,,CLR,0.00,VWS V14.01,2013-03-09 14:33:00,
2013-03-09 09:43:00,44.3,23.1,30.37,North,360,0.0,0.0,43,0.00,,CLR,0.00,VWS V14.01,2013-03-09 14:43:00,
2013-03-09 09:48:00,44.4,22.6,30.37,North,360,0.0,0.0,42,0.00,,CLR,0.00,VWS V14.01,2013-03-09 14:48:00,
2013-03-09 09:53:00,44.7,22.9,30.37,North,360,0.0,0.0,42,0.00,,CLR,0.00,VWS V14.01,2013-03-09 14:53:00,
2013-03-09 09:58:00,45.9,25.1,30.37,North,360,0.0,0.0,44,0.00,,CLR,0.00,VWS V14.01,2013-03-09 14:58:00,
2013-03-09 10:03:00,45.4,22.9,30.37,North,360,0.0,0.0,41,0.00,,CLR,0.00,VWS V14.01,2013-03-09 15:03:00,
2013-03-09 10:08:00,45.4,24.1,30.36,North,360,0.0,0.0,43,0.00,,CLR,0.00,VWS V14.01,2013-03-09 15:08:00,
2013-03-09 10:14:00,45.9,23.9,30.36,North,360,0.0,0.0,42,0.00,,CLR,0.00,VWS V14.01,2013-03-09 15:14:00,
2013-03-09 10:23:00,47.0,23.7,30.36,North,360,0.0,0.0,40,0.00,,CLR,0.00,VWS V14.01,2013-03-09 15:23:00,
2013-03-09 10:33:00,47.2,23.8,30.36,North,360,0.0,0.0,40,0.00,,CLR,0.00,VWS V14.01,2013-03-09 15:33:00,
2013-03-09 10:38:00,47.3,23.3,30.35,North,360,0.0,0.0,38,0.00,,CLR,0.00,VWS V14.01,2013-03-09 15:38:00,
2013-03-09 10:48:00,48.6,25.8,30.35,North,360,0.0,0.0,41,0.00,,CLR,0.00,VWS V14.01,2013-03-09 15:48:00,
2013-03-09 10:53:00,48.4,23.6,30.35,North,360,0.0,0.0,37,0.00,,CLR,0.00,VWS V14.01,2013-03-09 15:53:00,
2013-03-09 10:58:00,48.6,25.1,30.35,North,360,0.0,0.0,40,0.00,,CLR,0.00,VWS V14.01,2013-03-09 15:58:00,
2013-03-09 11:07:00,48.7,25.8,30.35,North,360,0.0,0.0,41,0.00,,CLR,0.00,VWS V14.01,2013-03-09 16:07:00,
2013-03-09 11:13:00,49.1,25.5,30.35,North,360,0.0,0.0,40,0.00,,CLR,0.00,VWS V14.01,2013-03-09 16:13:00,
2013-03-09 11:18:00,49.7,25.4,30.35,North,360,0.0,0.0,38,0.00,,CLR,0.00,VWS V14.01,2013-03-09 16:18:00,
2013-03-09 11:28:00,50.7,27.0,30.34,North,360,0.0,0.0,40,0.00,,CLR,0.00,VWS V14.01,2013-03-09 16:28:00,
2013-03-09 11:33:00,51.0,28.5,30.34,North,360,0.0,0.0,42,0.00,,CLR,0.00,VWS V14.01,2013-03-09 16:33:00,
2013-03-09 11:38:00,52.2,27.0,30.34,North,360,0.0,0.0,37,0.00,,CLR,0.00,VWS V14.01,2013-03-09 16:38:00,
2013-03-09 11:43:00,52.3,27.1,30.34,North,360,0.0,0.0,37,0.00,,CLR,0.00,VWS V14.01,2013-03-09 16:43:00,
2013-03-09 11:53:00,51.5,24.9,30.33,North,360,0.0,0.0,35,0.00,,CLR,0.00,VWS V14.01,2013-03-09 16:53:00,
2013-03-09 11:58:00,51.9,26.0,30.33,North,360,0.0,0.0,36,0.00,,CLR,0.00,VWS V14.01,2013-03-09 16:58:00,
2013-03-09 12:07:00,51.7,24.3,30.33,North,360,0.0,0.0,34,0.00,,CLR,0.00,VWS V14.01,2013-03-09 17:07:00,
2013-03-09 12:13:00,52.6,27.3,30.33,North,360,0.0,0.0,37,0.00,,CLR,0.00,VWS V14.01,2013-03-09 17:13:00,
2013-03-09 12:18:00,53.4,25.1,30.33,North,360,0.0,0.0,33,0.00,,CLR,0.00,VWS V14.01,2013-03-09 17:18:00,
2013-03-09 12:23:00,53.2,27.9,30.33,North,360,0.0,0.0,37,0.00,,CLR,0.00,VWS V14.01,2013-03-09 17:23:00,
2013-03-09 12:28:00,53.4,25.8,30.32,North,360,0.0,0.0,34,0.00,,CLR,0.00,VWS V14.01,2013-03-09 17:28:00,
2013-03-09 12:33:00,53.6,24.5,30.32,North,360,0.0,0.0,32,0.00,,CLR,0.00,VWS V14.01,2013-03-09 17:33:00,
2013-03-09 12:38:00,53.9,23.9,30.32,North,360,0.0,0.0,31,0.00,,CLR,0.00,VWS V14.01,2013-03-09 17:38:00,
2013-03-09 12:43:00,54.1,24.9,30.32,North,360,0.0,0.0,32,0.00,,CLR,0.00,VWS V14.01,2013-03-09 17:43:00,
2013-03-09 12:48:00,53.9,23.9,30.32,North,360,0.0,0.0,31,0.00,,CLR,0.00,VWS V14.01,2013-03-09 17:48:00,
2013-03-09 12:53:00,54.2,24.1,30.31,North,360,0.0,0.0,31,0.00,,CLR,0.00,VWS V14.01,2013-03-09 17:53:00,
2013-03-09 13:03:00,54.4,26.7,30.31,North,360,0.0,0.0,34,0.00,,FEW250,0.00,VWS V14.01,2013-03-09 18:03:00,
2013-03-09 13:08:00,54.7,26.2,30.31,North,360,0.0,0.0,33,0.00,,FEW250,0.00,VWS V14.01,2013-03-09 18:08:00,
2013-03-09 13:13:00,54.8,26.3,30.30,North,360,0.0,0.0,33,0.00,,FEW250,0.00,VWS V14.01,2013-03-09 18:13:00,
2013-03-09 13:18:00,55.1,26.6,30.30,North,360,0.0,0.0,33,0.00,,FEW250,0.00,VWS V14.01,2013-03-09 18:18:00,
2013-03-09 13:23:00,55.5,27.7,30.30,North,360,0.0,0.0,34,0.00,,FEW250,0.00,VWS V14.01,2013-03-09 18:23:00,
2013-03-09 13:28:00,55.6,27.0,30.30,North,360,0.0,0.0,33,0.00,,FEW250,0.00,VWS V14.01,2013-03-09 18:28:00,
2013-03-09 13:33:00,55.6,23.6,30.29,North,360,0.0,0.0,29,0.00,,FEW250,0.00,VWS V14.01,2013-03-09 18:33:00,
2013-03-09 13:38:00,56.0,28.1,30.29,North,360,0.0,0.0,34,0.00,,FEW250,0.00,VWS V14.01,2013-03-09 18:38:00,
2013-03-09 13:48:00,55.6,23.6,30.29,North,360,0.0,0.0,29,0.00,,FEW250,0.00,VWS V14.01,2013-03-09 18:48:00,
2013-03-09 13:58:00,56.0,22.1,30.28,North,360,0.0,0.0,27,0.00,,FEW250,0.00,VWS V14.01,2013-03-09 18:58:00,
2013-03-09 14:03:00,55.7,22.8,30.28,North,360,0.0,0.0,28,0.00,,FEW250,0.00,VWS V14.01,2013-03-09 19:03:00,
2013-03-09 14:08:00,56.2,24.2,30.28,North,360,0.0,0.0,29,0.00,,FEW250,0.00,VWS V14.01,2013-03-09 19:08:00,
2013-03-09 14:18:00,56.6,23.6,30.28,North,360,0.0,0.0,28,0.00,,FEW250,0.00,VWS V14.01,2013-03-09 19:18:00,
2013-03-09 14:25:00,57.0,25.7,30.28,North,360,0.0,0.0,30,0.00,,FEW250,0.00,VWS V14.01,2013-03-09 19:25:00,
2013-03-09 14:33:00,58.0,23.8,30.28,North,360,0.0,0.0,27,0.00,,FEW250,0.00,VWS V14.01,2013-03-09 19:33:00,
2013-03-09 14:43:00,57.9,23.8,30.28,North,360,0.0,0.0,27,0.00,,FEW250,0.00,VWS V14.01,2013-03-09 19:43:00,
2013-03-09 14:48:00,58.4,18.8,30.28,North,360,0.0,0.0,21,0.00,,FEW250,0.00,VWS V14.01,2013-03-09 19:48:00,
2013-03-09 14:53:00,58.8,20.3,30.28,North,360,0.0,0.0,22,0.00,,FEW250,0.00,VWS V14.01,2013-03-09 19:53:00,
2013-03-09 14:58:00,58.6,19.0,30.28,North,360,0.0,0.0,21,0.00,,SCT250,0.00,VWS V14.01,2013-03-09 19:58:00,
2013-03-09 15:03:00,59.1,21.7,30.28,North,360,0.0,0.0,23,0.00,,SCT250,0.00,VWS V14.01,2013-03-09 20:03:00,
2013-03-09 15:08:00,58.7,22.4,30.28,North,360,0.0,0.0,24,0.00,,SCT250,0.00,VWS V14.01,2013-03-09 20:08:00,
2013-03-09 15:13:00,57.9,22.8,30.28,North,360,0.0,0.0,25,0.00,,SCT250,0.00,VWS V14.01,2013-03-09 20:13:00,
2013-03-09 15:23:00,58.8,22.5,30.28,North,360,0.0,0.0,24,0.00,,SCT250,0.00,VWS V14.01,2013-03-09 20:23:00,
2013-03-09 15:28:00,58.9,22.6,30.28,North,360,0.0,0.0,24,0.00,,SCT250,0.00,VWS V14.01,2013-03-09 20:28:00,
2013-03-09 15:33:00,58.2,24.0,30.28,North,360,0.0,0.0,27,0.00,,SCT250,0.00,VWS V14.01,2013-03-09 20:33:00,
2013-03-09 15:43:00,58.7,17.9,30.28,North,360,0.0,0.0,20,0.00,,SCT250,0.00,VWS V14.01,2013-03-09 20:43:00,
2013-03-09 15:53:00,58.6,19.0,30.28,North,360,0.0,0.0,21,0.00,,SCT250,0.00,VWS V14.01,2013-03-09 20:53:00,
2013-03-09 15:58:00,58.6,20.1,30.27,North,360,0.0,0.0,22,0.00,,SCT250,0.00,VWS V14.01,2013-03-09 20:58:00,
2013-03-09 16:07:00,58.8,19.1,30.27,North,360,0.0,0.0,21,0.00,,SCT250,0.00,VWS V14.01,2013-03-09 21:07:00,
2013-03-09 16:13:00,58.7,20.2,30.27,North,360,0.0,0.0,22,0.00,,SCT250,0.00,VWS V14.01,2013-03-09 21:13:00,
2013-03-09 16:18:00,58.5,18.9,30.27,North,360,0.0,0.0,21,0.00,,SCT250,0.00,VWS V14.01,2013-03-09 21:18:00,
2013-03-09 16:28:00,58.4,18.8,30.27,North,360,0.0,0.0,21,0.00,,SCT250,0.00,VWS V14.01,2013-03-09 21:28:00,
2013-03-09 16:33:00,58.2,22.0,30.27,North,360,0.0,0.0,24,0.00,,SCT250,0.00,VWS V14.01,2013-03-09 21:33:00,
2013-03-09 16:38:00,58.1,19.7,30.27,North,360,0.0,0.0,22,0.00,,SCT250,0.00,VWS V14.01,2013-03-09 21:38:00,
2013-03-09 16:43:00,58.0,19.6,30.27,North,360,0.0,0.0,22,0.00,,SCT250,0.00,VWS V14.01,2013-03-09 21:43:00,
2013-03-09 16:48:00,58.0,18.5,30.27,North,360,0.0,0.0,21,0.00,,SCT250,0.00,VWS V14.01,2013-03-09 21:48:00,
2013-03-09 16:53:00,58.0,19.6,30.26,North,360,0.0,0.0,22,0.00,,SCT250,0.00,VWS V14.01,2013-03-09 21:53:00,
2013-03-09 16:58:00,58.2,19.8,30.26,North,360,0.0,0.0,22,0.00,,FEW250,0.00,VWS V14.01,2013-03-09 21:58:00,
2013-03-09 17:03:00,57.8,19.5,30.27,North,360,0.0,0.0,22,0.00,,FEW250,0.00,VWS V14.01,2013-03-09 22:03:00,
2013-03-09 17:13:00,58.1,19.7,30.27,North,360,0.0,0.0,22,0.00,,FEW250,0.00,VWS V14.01,2013-03-09 22:13:00,
2013-03-09 17:18:00,57.9,20.7,30.27,North,360,0.0,0.0,23,0.00,,FEW250,0.00,VWS V14.01,2013-03-09 22:18:00,
2013-03-09 17:28:00,57.5,19.2,30.27,North,360,0.0,0.0,22,0.00,,FEW250,0.00,VWS V14.01,2013-03-09 22:28:00,
2013-03-09 17:33:00,57.6,21.5,30.27,North,360,0.0,0.0,24,0.00,,FEW250,0.00,VWS V14.01,2013-03-09 22:33:00,
2013-03-09 17:38:00,57.8,20.6,30.27,North,360,0.0,0.0,23,0.00,,FEW250,0.00,VWS V14.01,2013-03-09 22:38:00,
2013-03-09 17:43:00,57.8,20.6,30.27,North,360,0.0,0.0,23,0.00,,FEW250,0.00,VWS V14.01,2013-03-09 22:43:00,
2013-03-09 17:48:00,57.9,19.6,30.27,North,360,0.0,0.0,22,0.00,,FEW250,0.00,VWS V14.01,2013-03-09 22:48:00,
2013-03-09 17:53:00,57.7,21.6,30.27,North,360,0.0,0.0,24,0.00,,FEW250,0.00,VWS V14.01,2013-03-09 22:53:00,
2013-03-09 18:07:00,57.4,20.2,30.28,North,360,0.0,0.0,23,0.00,,FEW250,0.00,VWS V14.01,2013-03-09 23:07:00,
2013-03-09 18:13:00,56.4,23.4,30.27,North,360,0.0,0.0,28,0.00,,FEW250,0.00,VWS V14.01,2013-03-09 23:13:00,
2013-03-09 18:23:00,55.7,22.8,30.28,North,360,0.0,0.0,28,0.00,,FEW250,0.00,VWS V14.01,2013-03-09 23:23:00,
2013-03-09 18:33:00,54.8,23.8,30.28,North,360,0.0,0.0,30,0.00,,FEW250,0.00,VWS V14.01,2013-03-09 23:33:00,
2013-03-09 18:38:00,54.5,24.4,30.28,North,360,0.0,0.0,31,0.00,,FEW250,0.00,VWS V14.01,2013-03-09 23:38:00,
2013-03-09 18:43:00,54.3,23.4,30.28,North,360,0.0,0.0,30,0.00,,FEW250,0.00,VWS V14.01,2013-03-09 23:43:00,
2013-03-09 18:48:00,54.2,25.0,30.28,North,360,0.0,0.0,32,0.00,,FEW250,0.00,VWS V14.01,2013-03-09 23:48:00,
2013-03-09 18:53:00,54.0,23.1,30.28,North,360,0.0,0.0,30,0.00,,FEW250,0.00,VWS V14.01,2013-03-09 23:53:00,
2013-03-09 18:58:00,53.8,24.6,30.28,North,360,0.0,0.0,32,0.00,,FEW250,0.00,VWS V14.01,2013-03-09 23:58:00,
2013-03-09 19:07:00,53.5,23.5,30.28,North,360,0.0,0.0,31,0.00,,FEW250,0.00,VWS V14.01,2013-03-10 00:07:00,
2013-03-09 19:13:00,52.9,24.6,30.28,North,360,0.0,0.0,33,0.00,,FEW250,0.00,VWS V14.01,2013-03-10 00:13:00,
2013-03-09 19:18:00,52.7,24.5,30.29,North,360,0.0,0.0,33,0.00,,FEW250,0.00,VWS V14.01,2013-03-10 00:18:00,
2013-03-09 19:23:00,52.5,24.3,30.29,North,360,0.0,0.0,33,0.00,,FEW250,0.00,VWS V14.01,2013-03-10 00:23:00,
2013-03-09 19:33:00,51.9,25.3,30.29,North,360,0.0,0.0,35,0.00,,FEW250,0.00,VWS V14.01,2013-03-10 00:33:00,
2013-03-09 19:43:00,51.4,25.5,30.29,North,360,0.0,0.0,36,0.00,,FEW250,0.00,VWS V14.01,2013-03-10 00:43:00,
2013-03-09 19:48:00,51.1,25.3,30.29,North,360,0.0,0.0,36,0.00,,FEW250,0.00,VWS V14.01,2013-03-10 00:48:00,
2013-03-09 19:53:00,50.9,27.2,30.29,North,360,0.0,0.0,40,0.00,,FEW250,0.00,VWS V14.01,2013-03-10 00:53:00,
2013-03-09 19:58:00,50.6,26.9,30.29,North,360,0.0,0.0,40,0.00,,FEW250,0.00,VWS V14.01,2013-03-10 00:58:00,
2013-03-09 20:03:00,50.4,26.7,30.29,North,360,0.0,0.0,40,0.00,,FEW250,0.00,VWS V14.01,2013-03-10 01:03:00,
2013-03-09 20:08:00,50.3,26.0,30.29,North,360,0.0,0.0,38,0.00,,FEW250,0.00,VWS V14.01,2013-03-10 01:08:00,
2013-03-09 20:13:00,50.1,26.5,30.29,North,360,0.0,0.0,40,0.00,,FEW250,0.00,VWS V14.01,2013-03-10 01:13:00,
2013-03-09 20:18:00,49.9,26.9,30.29,North,360,0.0,0.0,41,0.00,,FEW250,0.00,VWS V14.01,2013-03-10 01:18:00,
2013-03-09 20:23:00,49.4,27.1,30.30,North,360,0.0,0.0,42,0.00,,FEW250,0.00,VWS V14.01,2013-03-10 01:23:00,
2013-03-09 20:28:00,49.3,27.0,30.30,North,360,0.0,0.0,42,0.00,,FEW250,0.00,VWS V14.01,2013-03-10 01:28:00,
2013-03-09 20:38:00,49.0,28.6,30.30,North,360,0.0,0.0,45,0.00,,FEW250,0.00,VWS V14.01,2013-03-10 01:38:00,
2013-03-09 20:43:00,48.9,29.0,30.30,North,360,0.0,0.0,46,0.00,,FEW250,0.00,VWS V14.01,2013-03-10 01:43:00,
2013-03-09 20:48:00,48.6,28.8,30.30,North,360,0.0,0.0,46,0.00,,FEW250,0.00,VWS V14.01,2013-03-10 01:48:00,
2013-03-09 20:53:00,48.2,30.1,30.30,North,360,0.0,0.0,49,0.00,,FEW250,0.00,VWS V14.01,2013-03-10 01:53:00,
2013-03-09 20:58:00,47.9,30.3,30.30,North,360,0.0,0.0,50,0.00,,FEW250,0.00,VWS V14.01,2013-03-10 01:58:00,
2013-03-09 21:03:00,47.7,30.1,30.31,North,360,0.0,0.0,50,0.00,,FEW250,0.00,VWS V14.01,2013-03-10 02:03:00,
2013-03-09 21:13:00,47.4,30.4,30.31,North,360,0.0,0.0,51,0.00,,FEW250,0.00,VWS V14.01,2013-03-10 02:13:00,
2013-03-09 21:23:00,47.0,31.5,30.31,North,360,0.0,0.0,55,0.00,,FEW250,0.00,VWS V14.01,2013-03-10 02:23:00,
2013-03-09 21:33:00,47.0,30.0,30.31,North,360,0.0,0.0,51,0.00,,FEW250,0.00,VWS V14.01,2013-03-10 02:33:00,
2013-03-09 21:38:00,46.7,30.2,30.32,North,360,0.0,0.0,52,0.00,,FEW250,0.00,VWS V14.01,2013-03-10 02:38:00,
2013-03-09 21:48:00,46.2,29.3,30.32,North,360,0.0,0.0,51,0.00,,FEW250,0.00,VWS V14.01,2013-03-10 02:48:00,
2013-03-09 21:53:00,46.1,28.1,30.32,North,360,0.0,0.0,49,0.00,,FEW250,0.00,VWS V14.01,2013-03-10 02:53:00,
2013-03-09 21:58:00,46.1,28.7,30.32,North,360,0.0,0.0,50,0.00,,FEW250,0.00,VWS V14.01,2013-03-10 02:58:00,
2013-03-09 22:03:00,45.9,28.0,30.32,North,360,0.0,0.0,49,0.00,,FEW250,0.00,VWS V14.01,2013-03-10 03:03:00,
2013-03-09 22:08:00,45.8,28.4,30.32,North,360,0.0,0.0,50,0.00,,FEW250,0.00,VWS V14.01,2013-03-10 03:08:00,
2013-03-09 22:18:00,45.6,28.7,30.32,North,360,0.0,0.0,51,0.00,,FEW250,0.00,VWS V14.01,2013-03-10 03:18:00,
2013-03-09 22:23:00,45.6,28.7,30.32,North,360,0.0,0.0,51,0.00,,FEW250,0.00,VWS V14.01,2013-03-10 03:23:00,
2013-03-09 22:28:00,45.6,28.2,30.32,North,360,0.0,0.0,50,0.00,,FEW250,0.00,VWS V14.01,2013-03-10 03:28:00,
2013-03-09 22:38:00,45.3,27.9,30.32,North,360,0.0,0.0,50,0.00,,FEW250,0.00,VWS V14.01,2013-03-10 03:38:00,
2013-03-09 22:48:00,44.6,31.6,30.32,North,360,0.0,0.0,60,0.00,,FEW250,0.00,VWS V14.01,2013-03-10 03:48:00,
2013-03-09 22:53:00,44.3,33.5,30.32,North,360,0.0,0.0,65,0.00,,FEW250,0.00,VWS V14.01,2013-03-10 03:53:00,
2013-03-09 22:58:00,44.2,32.5,30.32,North,360,0.0,0.0,63,0.00,,CLR,0.00,VWS V14.01,2013-03-10 03:58:00,
2013-03-09 23:07:00,43.9,32.7,30.32,North,360,0.0,0.0,64,0.00,,CLR,0.00,VWS V14.01,2013-03-10 04:07:00,
2013-03-09 23:13:00,43.4,32.2,30.32,North,360,0.0,0.0,64,0.00,,CLR,0.00,VWS V14.01,2013-03-10 04:13:00,
2013-03-09 23:18:00,43.4,33.0,30.32,North,360,0.0,0.0,67,0.00,,CLR,0.00,VWS V14.01,2013-03-10 04:18:00,
2013-03-09 23:23:00,43.1,32.7,30.31,North,360,0.0,0.0,67,0.00,,CLR,0.00,VWS V14.01,2013-03-10 04:23:00,
2013-03-09 23:28:00,43.0,33.0,30.31,North,360,0.0,0.0,68,0.00,,CLR,0.00,VWS V14.01,2013-03-10 04:28:00,
2013-03-09 23:33:00,42.8,31.6,30.31,North,360,0.0,0.0,64,0.00,,CLR,0.00,VWS V14.01,2013-03-10 04:33:00,
2013-03-09 23:43:00,42.6,31.0,30.32,North,360,0.0,0.0,63,0.00,,CLR,0.00,VWS V14.01,2013-03-10 04:43:00,
2013-03-09 23:48:00,42.6,31.8,30.32,North,360,0.0,0.0,65,0.00,,CLR,0.00,VWS V14.01,2013-03-10 04:48:00,
2013-03-09 23:54:00,42.3,33.5,30.32,North,360,0.0,0.0,71,0.00,,CLR,0.00,VWS V14.01,2013-03-10 04:54:00,